Погода в Сергиевском

Россия / Саратовская область     51°17′25″N   45°39′26″E
темп.,
°C
ветер,
м/с
пор.,
м/с
влажн.,
%
обл.,
%
осадки,
мм/ч
давл.,
гПа
погр.,
м
16 апреля, пт
пт1601:00+10ссв1163100 0.0 101510
04:00+9ссв3369100 0.0 101510
07:00+8ссв337364 0.0 101615
10:00+10св336987 0.0 101792
13:00+13с2257100 0.0 1017202
16:00+15ссв224881 0.0 1017329
19:00+15ссз334927 0.0 101614
22:00+12в225915 0.0 101710
17 апреля, сб
сб1701:00+10ююв0063100 0.0 101810
04:00+10св336533 0.0 101910
07:00+8св33735 0.0 101930
10:00+10св33714 0.0 1019101
13:00+13в2457100 0.1 1019283
16:00+14юз2354100 0.3 1018859
19:00+10зсз111684100 1.1 1019312
22:00+9зсз5791100 2.8 1019163
18 апреля, вс
вс1801:00+8ссз5695100 3.7 1019121
04:00+8з4594100 4.4 1019146
07:00+8зсз58915 0.0 1019157
10:00+10зсз68685 0.0 1019278
13:00+12зсз675528 0.0 1019525
16:00+13сз4553100 0.0 1019646
19:00+10св457740 0.0 101954
22:00+8с22898 0.1 102024
19 апреля, пн
пн1901:00+7ссз2291100 0.0 102015
04:00+7с2291100 0.0 102019
07:00+7ссв2495100 0.0 102082
10:00+7св6888100 0.0 1021208
13:00+9св6780100 0.0 1020355
16:00+9св6979100 0.0 1020291
19:00+8св71185100 0.3 1021274
22:00+6всв7128891 0.5 1021289
20 апреля, вт
вт2001:00+6всв8128880 0.0 1021314
04:00+5всв71189100 0.0 1022376
07:00+5всв8138692 0.0 1022441
10:00+6в9138197 0.0 1021398
13:00+9вюв91471100 0.0 1020465
16:00+9вюв81475100 0.6 1018449
19:00+8вюв111879100 3.8 1017446
22:00+7вюв101680100 5.3 1018410